Previsão horária em Aars

Hoje, 20 Outubro, Terça-feira

Tempo Temperatura Precipitação Vento Pressão Humidade
00:00 +7°C° 0 mm 5 m/s 759 mmHg 88%
01:00 +6°C° 0 mm 4 m/s 758 mmHg 88%
02:00 +7°C° 0 mm 5 m/s 758 mmHg 88%
03:00 +7°C° 0 mm 5 m/s 758 mmHg 89%
04:00 +7°C° 0 mm 5 m/s 757 mmHg 89%
05:00 +7°C° 0 mm 5 m/s 757 mmHg 88%
06:00 +7°C° 0 mm 5 m/s 757 mmHg 86%
07:00 +7°C° 0 mm 5 m/s 756 mmHg 85%
08:00 +8°C° 0 mm 6 m/s 756 mmHg 81%
09:00 +8°C° 0 mm 6 m/s 755 mmHg 77%
10:00 +9°C° 0 mm 7 m/s 755 mmHg 72%
11:00 +9°C° 0 mm 6 m/s 755 mmHg 70%
12:00 +9°C° 0 mm 6 m/s 755 mmHg 67%
13:00 +10°C° 0 mm 6 m/s 755 mmHg 65%
14:00 +9°C° 0.1 mm 5 m/s 754 mmHg 68%
15:00 +9°C° 0.1 mm 5 m/s 753 mmHg 70%
16:00 +8°C° 0.1 mm 4 m/s 753 mmHg 73%
17:00 +8°C° 0.1 mm 4 m/s 752 mmHg 77%
18:00 +8°C° 0.1 mm 4 m/s 752 mmHg 80%
19:00 +8°C° 0.1 mm 5 m/s 751 mmHg 84%
20:00 +9°C° 0.2 mm 5 m/s 751 mmHg 88%
21:00 +10°C° 0.2 mm 5 m/s 751 mmHg 91%
22:00 +10°C° 0.2 mm 5 m/s 751 mmHg 95%
23:00 +12°C° 0.1 mm 5 m/s 751 mmHg 95%

Amanhã, 21 Outubro, Quarta-feira

Tempo Temperatura Precipitação Vento Pressão Humidade
00:00 +12°C° 0.1 mm 5 m/s 751 mmHg 95%
01:00 +12°C° 0.1 mm 5 m/s 751 mmHg 96%
02:00 +12°C° 0.1 mm 5 m/s 750 mmHg 95%
03:00 +12°C° 0.1 mm 5 m/s 750 mmHg 95%
04:00 +13°C° 0.1 mm 5 m/s 750 mmHg 95%
05:00 +13°C° 0.1 mm 5 m/s 750 mmHg 95%
06:00 +12°C° 0.1 mm 5 m/s 750 mmHg 95%
07:00 +12°C° 0.1 mm 5 m/s 750 mmHg 95%
08:00 +13°C° 0 mm 5 m/s 750 mmHg 93%
09:00 +13°C° 0 mm 5 m/s 750 mmHg 92%
10:00 +14°C° 0 mm 5 m/s 750 mmHg 90%
11:00 +14°C° 0.1 mm 5 m/s 750 mmHg 90%
12:00 +14°C° 0.1 mm 5 m/s 749 mmHg 90%
13:00 +14°C° 0.1 mm 5 m/s 749 mmHg 91%
14:00 +13°C° 2 mm 5 m/s 748 mmHg 92%
15:00 +13°C° 2 mm 6 m/s 747 mmHg 93%
16:00 +11°C° 2 mm 6 m/s 746 mmHg 95%
17:00 +11°C° 1.6 mm 6 m/s 745 mmHg 94%
18:00 +11°C° 1.6 mm 6 m/s 744 mmHg 93%
19:00 +11°C° 1.6 mm 6 m/s 743 mmHg 93%
20:00 +12°C° 0.5 mm 8 m/s 743 mmHg 91%
21:00 +12°C° 0.5 mm 10 m/s 743 mmHg 89%
22:00 +13°C° 0.5 mm 11 m/s 742 mmHg 87%
23:00 +13°C° 0.1 mm 11 m/s 743 mmHg 87%

Depois de amanhã, 22 Outubro, Quinta-feira

Tempo Temperatura Precipitação Vento Pressão Humidade
00:00 +13°C° 0.1 mm 10 m/s 744 mmHg 87%
01:00 +12°C° 0.1 mm 10 m/s 745 mmHg 88%
02:00 +12°C° 0 mm 9 m/s 746 mmHg 88%
03:00 +12°C° 0 mm 9 m/s 747 mmHg 87%
04:00 +12°C° 0 mm 8 m/s 748 mmHg 87%
05:00 +12°C° 0 mm 7 m/s 748 mmHg 87%
06:00 +12°C° 0 mm 7 m/s 748 mmHg 87%
07:00 +13°C° 0 mm 6 m/s 749 mmHg 88%
08:00 +12°C° 0 mm 7 m/s 749 mmHg 86%
09:00 +14°C° 0 mm 7 m/s 749 mmHg 84%
10:00 +13°C° 0 mm 8 m/s 749 mmHg 82%
11:00 +13°C° 0 mm 8 m/s 749 mmHg 78%
12:00 +15°C° 0 mm 8 m/s 749 mmHg 74%
13:00 +15°C° 0 mm 8 m/s 749 mmHg 70%
14:00 +13°C° 0 mm 8 m/s 748 mmHg 73%
15:00 +12°C° 0 mm 7 m/s 748 mmHg 75%
16:00 +13°C° 0 mm 6 m/s 748 mmHg 77%
17:00 +11°C° 0 mm 6 m/s 748 mmHg 80%
18:00 +10°C° 0 mm 6 m/s 748 mmHg 83%
19:00 +10°C° 0 mm 5 m/s 748 mmHg 86%
20:00 +9°C° 0 mm 5 m/s 748 mmHg 88%
21:00 +10°C° 0 mm 4 m/s 748 mmHg 90%
22:00 +9°C° 0 mm 3 m/s 748 mmHg 91%
23:00 +9°C° 0 mm 3 m/s 748 mmHg 91%

23 Outubro, Sexta-feira

Tempo Temperatura Precipitação Vento Pressão Humidade
00:00 +9°C° 0 mm 3 m/s 748 mmHg 90%
01:00 +10°C° 0 mm 3 m/s 748 mmHg 89%
02:00 +10°C° 0 mm 3 m/s 748 mmHg 90%
03:00 +10°C° 0 mm 2 m/s 747 mmHg 90%
04:00 +10°C° 0 mm 2 m/s 747 mmHg 91%
05:00 +9°C° 0 mm 2 m/s 747 mmHg 90%
06:00 +9°C° 0 mm 2 m/s 747 mmHg 90%
07:00 +9°C° 0 mm 2 m/s 747 mmHg 90%
08:00 +10°C° 0 mm 2 m/s 747 mmHg 86%
09:00 +10°C° 0 mm 2 m/s 748 mmHg 81%
10:00 +10°C° 0 mm 2 m/s 748 mmHg 77%
11:00 +12°C° 0 mm 2 m/s 748 mmHg 75%
12:00 +12°C° 0 mm 2 m/s 748 mmHg 73%
13:00 +12°C° 0 mm 2 m/s 749 mmHg 72%
14:00 +12°C° 0 mm 1 m/s 749 mmHg 75%
15:00 +11°C° 0 mm 1 m/s 749 mmHg 77%
16:00 +10°C° 0 mm 0 m/s 749 mmHg 80%
17:00 +10°C° 0.1 mm 0 m/s 749 mmHg 82%
18:00 +9°C° 0.1 mm 0 m/s 749 mmHg 84%
19:00 +10°C° 0.1 mm 1 m/s 749 mmHg 86%
20:00 +10°C° 0 mm 1 m/s 749 mmHg 88%
21:00 +9°C° 0 mm 2 m/s 748 mmHg 90%
22:00 +9°C° 0 mm 3 m/s 748 mmHg 92%
23:00 +8°C° 1.2 mm 4 m/s 748 mmHg 90%

24 Outubro, Sábado

Tempo Temperatura Precipitação Vento Pressão Humidade
00:00 +8°C° 1.2 mm 5 m/s 748 mmHg 88%
01:00 +8°C° 1.2 mm 5 m/s 748 mmHg 86%
02:00 +8°C° 0.1 mm 6 m/s 748 mmHg 83%
03:00 +8°C° 0.1 mm 6 m/s 748 mmHg 81%
04:00 +6°C° 0.1 mm 7 m/s 748 mmHg 79%
05:00 +6°C° 0 mm 7 m/s 749 mmHg 80%
06:00 +7°C° 0 mm 6 m/s 749 mmHg 80%
07:00 +7°C° 0 mm 6 m/s 750 mmHg 81%
08:00 +6°C° 0 mm 7 m/s 751 mmHg 78%
09:00 +8°C° 0 mm 7 m/s 751 mmHg 75%
10:00 +9°C° 0 mm 8 m/s 752 mmHg 72%
11:00 +9°C° 0 mm 8 m/s 752 mmHg 69%
12:00 +10°C° 0 mm 9 m/s 753 mmHg 66%
13:00 +10°C° 0 mm 9 m/s 754 mmHg 64%
14:00 +9°C° 0 mm 8 m/s 754 mmHg 67%
15:00 +9°C° 0 mm 7 m/s 754 mmHg 70%
16:00 +9°C° 0 mm 6 m/s 755 mmHg 73%
17:00 +8°C° 0 mm 5 m/s 755 mmHg 75%
18:00 +8°C° 0 mm 5 m/s 755 mmHg 77%
19:00 +8°C° 0 mm 4 m/s 756 mmHg 80%
20:00 +8°C° 0 mm 4 m/s 756 mmHg 81%
21:00 +9°C° 0 mm 5 m/s 756 mmHg 83%
22:00 +9°C° 0 mm 5 m/s 756 mmHg 85%
23:00 +9°C° 0 mm 5 m/s 756 mmHg 85%

25 Outubro, Domingo

Tempo Temperatura Precipitação Vento Pressão Humidade
00:00 +9°C° 0 mm 5 m/s 756 mmHg 85%
01:00 +9°C° 0 mm 5 m/s 756 mmHg 85%
02:00 +9°C° 0 mm 5 m/s 756 mmHg 86%
03:00 +9°C° 0 mm 5 m/s 756 mmHg 87%
04:00 +9°C° 0 mm 5 m/s 756 mmHg 89%
05:00 +9°C° 0 mm 5 m/s 755 mmHg 88%
06:00 +10°C° 0 mm 6 m/s 755 mmHg 87%
07:00 +10°C° 0 mm 6 m/s 755 mmHg 86%
08:00 +10°C° 0 mm 7 m/s 755 mmHg 86%
09:00 +11°C° 0 mm 7 m/s 755 mmHg 85%
10:00 +11°C° 0 mm 7 m/s 755 mmHg 85%
11:00 +11°C° 0 mm 7 m/s 755 mmHg 84%
12:00 +12°C° 0 mm 7 m/s 755 mmHg 83%
13:00 +13°C° 0 mm 6 m/s 755 mmHg 82%
14:00 +13°C° 0 mm 6 m/s 755 mmHg 83%
15:00 +13°C° 0 mm 6 m/s 755 mmHg 84%
16:00 +13°C° 0 mm 6 m/s 755 mmHg 85%
17:00 +13°C° 0 mm 5 m/s 755 mmHg 85%
18:00 +12°C° 0 mm 5 m/s 755 mmHg 85%
19:00 +12°C° 0 mm 5 m/s 755 mmHg 85%
20:00 +12°C° 0 mm 5 m/s 755 mmHg 85%
21:00 +12°C° 0 mm 5 m/s 755 mmHg 86%
22:00 +12°C° 0 mm 5 m/s 755 mmHg 86%
23:00 +10°C° 0 mm 5 m/s 755 mmHg 89%

26 Outubro, Segunda-feira

Tempo Temperatura Precipitação Vento Pressão Humidade
00:00 +10°C° 0 mm 5 m/s 754 mmHg 91%
01:00 +9°C° 0 mm 5 m/s 754 mmHg 94%
02:00 +9°C° 0 mm 5 m/s 754 mmHg 94%
03:00 +9°C° 0 mm 5 m/s 754 mmHg 94%
04:00 +8°C° 0 mm 5 m/s 753 mmHg 94%
05:00 +8°C° 0 mm 5 m/s 753 mmHg 94%
06:00 +8°C° 0 mm 5 m/s 753 mmHg 94%
07:00 +8°C° 0 mm 5 m/s 753 mmHg 95%
08:00 +8°C° 0 mm 5 m/s 753 mmHg 93%
09:00 +9°C° 0 mm 5 m/s 753 mmHg 90%
10:00 +10°C° 0 mm 5 m/s 753 mmHg 88%
11:00 +10°C° 0 mm 5 m/s 753 mmHg 86%
12:00 +12°C° 0 mm 5 m/s 753 mmHg 85%
13:00 +13°C° 0 mm 5 m/s 753 mmHg 83%
14:00 +12°C° 0 mm 5 m/s 753 mmHg 84%
15:00 +12°C° 0 mm 4 m/s 753 mmHg 84%
16:00 +11°C° 0 mm 3 m/s 754 mmHg 85%
17:00 +11°C° 0 mm 3 m/s 754 mmHg 88%
18:00 +10°C° 0 mm 3 m/s 754 mmHg 90%
19:00 +8°C° 0 mm 4 m/s 754 mmHg 92%
20:00 +8°C° 0 mm 4 m/s 755 mmHg 92%
21:00 +8°C° 0 mm 4 m/s 755 mmHg 92%
22:00 +7°C° 0 mm 4 m/s 755 mmHg 93%
23:00 +7°C° 0 mm 5 m/s 755 mmHg 92%
Mostrar mais